Regional Weather Roundup
Issued by NWS

Home | Current Version | Previous Version | Text Only | Print | Product List | Glossary Off
Versions: 1 2 3 4 5 6 7 8 9 10 11 12 13 14 15 16 17 18 19 20 21 22 23 24 25 26 27 28 29 30 31 32 33 34 35 36 37 38 39 40 41 42 43 44 45 46 47 48 49 50

300
ASUS45 KSLC 130810
RWRUT

UTAH REGIONAL WEATHER ROUNDUP
NATIONAL WEATHER SERVICE SALT LAKE CITY UT
100 AM MST SAT FEB 13 2016

UTZ001>011-023>025-130900-

NORTHERN UTAH

CITY           SKY/WX    TMP DP  RH WIND       PRES   REMARKS
BRIGHAM CITY   CLOUDY    26  24  93 CALM      30.33F VSB 1/2
HILL AFB       FOG       26  26  99 NW5       30.30F VSB 1/4 WCI  21
LOGAN          FOG       22  22 100 SW5       30.31F VSB 1/2 WCI  16
OGDEN          FOG       26  26 100 NW5       30.31F VSB 1/4 WCI  20
PROVO AIRPORT    N/A     19  18  93 CALM      30.31S VSB<1/4
SALT LAKE CITY CLOUDY    29  27  92 NW6       30.32S FOG     WCI  23
VERNAL         CLOUDY    21  17  84 CALM      30.30F FOG
WENDOVER       CLOUDY    28  25  86 SE5       30.31F WCI  23
HEBER CITY     PTCLDY    12   9  85 CALM      30.26S FOG
WEST JORDAN    CLOUDY    28  28 100 CALM      30.31F

$$

UTZ012>022-026-027-130900-

SOUTHERN/CENTRAL UTAH

CITY           SKY/WX    TMP DP  RH WIND       PRES   REMARKS
BLANDING       PTCLDY    34  22  60 N8        30.38F WCI  27
BRYCE CANYON   PTCLDY     7   3  84 CALM      30.36F
CEDAR CITY     MOCLDY    25  20  81 CALM      30.26F
DELTA          CLOUDY    16  14  94 CALM      30.31F VSB<1/4
HANKSVILLE     MOCLDY    32  30  93 CALM      30.33S
MILFORD        FOG        6   3  87 SW5       30.28F VSB 1   WCI  -3
MOAB/CYNLANDS  MOCLDY    32  29  88 CALM      30.29F
PRICE          MOCLDY    29  22  75 N5        30.30F WCI  24
ST GEORGE      MOSUNNY   46  27  46 NE3       30.23S
KANAB          PTCLDY    39  28  65 N6        30.31F WCI  35

$$

REGIONAL REPORTS     COLORADO/ARIZONA

CITY           SKY/WX    TMP DP  RH WIND       PRES   REMARKS
CRAIG, CO      CLOUDY    11   6  81 CALM      30.29F
GRAND JUNCTION CLOUDY    30  26  85 E7        30.31F WCI  23
RIFLE          CLOUDY    24  18  77 CALM      30.33F
MONTROSE       CLOUDY    29  23  78 S7        30.34F WCI  22
CORTEZ         CLOUDY    23  20  88 E5        30.34F WCI  17
PAGE, AZ       PTCLDY    40  30  67 NW3       30.28F
GRAND CANYON   MOCLDY    27  21  78 CALM      30.33F
KINGMAN        CLEAR     42  23  46 E6        30.19F
FLAGSTAFF      PTCLDY    27  19  72 CALM      30.35F

$$

REGIONAL REPORTS    NEVADA/IDAHO/WYOMING

CITY           SKY/WX    TMP DP  RH WIND       PRES   REMARKS
LAS VEGAS, NV  PTCLDY    53  23  31 S6        30.12S
ELY            PTCLDY    22  14  71 S13       30.30S WCI  10
ELKO           CLOUDY    20  16  84 CALM      30.28F
POCATELLO, ID  CLOUDY    28  23  81 CALM      30.22S
BURLEY         MOCLDY    31  28  89 CALM      30.17F
EVANSTON, WY   CLOUDY    32  13  45 SW5       30.24F WCI  27
ROCK SPRINGS   CLOUDY    35  21  56 W9        30.23F WCI  28

$$




USA.gov is the U.S. government's official web portal to all federal, state and local government web resources and services.